DLH150 EDDN-EDDC

Flight info

Callsign DLH150
Flight time 0h 28m
Altitude 19000
Route ERETO1C ERETO Z715 ABKIS Q240 DRN
Aircraft A20N/M-SDE2E3FGHIRWXY/LB1

Departure

Time 2026-04-28 14:28
Airport Nuremberg Airport (EDDN)

Arrival

Time 2026-04-28 14:56
Airport Dresden Airport (EDDC)
Time Latitude Longitude Altitude Speed Heading
2026-04-28 14:08 49.49518 11.07790 1025 ft 0 kts 188°
2026-04-28 14:15 49.49532 11.07793 1025 ft 0 kts 192°
2026-04-28 14:15 49.49532 11.07661 1024 ft 0 kts 188°
2026-04-28 14:19 49.49552 11.07664 1026 ft 4 kts 181°
2026-04-28 14:19 49.49579 11.07661 1029 ft 4 kts 161°
2026-04-28 14:19 49.49599 11.07640 1029 ft 3 kts 104°
2026-04-28 14:19 49.49601 11.07628 1030 ft 0 kts 98°
2026-04-28 14:22 49.49599 11.07647 1029 ft 4 kts 98°
2026-04-28 14:22 49.49602 11.07744 1027 ft 15 kts 59°
2026-04-28 14:23 49.49683 11.07724 1032 ft 13 kts 292°
2026-04-28 14:23 49.49700 11.07577 1033 ft 15 kts 278°
2026-04-28 14:23 49.49718 11.07390 1027 ft 20 kts 278°
2026-04-28 14:23 49.49739 11.07166 1025 ft 23 kts 278°
2026-04-28 14:24 49.49762 11.06910 1023 ft 25 kts 278°
2026-04-28 14:24 49.49788 11.06634 1021 ft 27 kts 278°
2026-04-28 14:24 49.49817 11.06385 1023 ft 21 kts 278°
2026-04-28 14:24 49.49837 11.06172 1026 ft 17 kts 278°
2026-04-28 14:25 49.49849 11.06054 1029 ft 15 kts 282°
2026-04-28 14:25 49.49941 11.05947 1034 ft 6 kts 339°
2026-04-28 14:26 49.49952 11.05941 1034 ft 6 kts 341°
2026-04-28 14:26 49.50046 11.06004 1032 ft 14 kts 75°
2026-04-28 14:26 49.50045 11.06014 1032 ft 0 kts 97°
2026-04-28 14:27 49.50045 11.06022 1032 ft 2 kts 97°
2026-04-28 14:27 49.50044 11.06026 1032 ft 0 kts 97°
2026-04-28 14:27 49.50024 11.06254 1028 ft 63 kts 98°
2026-04-28 14:27 49.49913 11.07360 1031 ft 140 kts 98°
2026-04-28 14:28 49.49739 11.09135 1262 ft 181 kts 98°
2026-04-28 14:28 49.49551 11.11006 2271 ft 177 kts 99°
2026-04-28 14:28 49.49361 11.12907 3186 ft 188 kts 98°
2026-04-28 14:28 49.49162 11.14980 3832 ft 204 kts 98°
2026-04-28 14:29 49.49096 11.17270 4321 ft 225 kts 79°
2026-04-28 14:29 49.49692 11.19588 4777 ft 248 kts 56°
2026-04-28 14:29 49.50845 11.21716 5359 ft 268 kts 43°
2026-04-28 14:29 49.52274 11.23623 6253 ft 273 kts 38°
2026-04-28 14:30 49.53791 11.25428 7227 ft 277 kts 37°
2026-04-28 14:30 49.55371 11.27265 8185 ft 281 kts 37°
2026-04-28 14:30 49.56892 11.29050 9085 ft 285 kts 37°
2026-04-28 14:30 49.58513 11.30878 10012 ft 289 kts 30°
2026-04-28 14:31 49.60365 11.32150 10883 ft 293 kts 15°
2026-04-28 14:31 49.62384 11.32778 11667 ft 301 kts 12°
2026-04-28 14:31 49.64372 11.34098 11961 ft 325 kts 33°
2026-04-28 14:31 49.66240 11.36214 12282 ft 346 kts 38°
2026-04-28 14:32 49.68129 11.38600 13004 ft 352 kts 39°
2026-04-28 14:32 49.70033 11.41018 13813 ft 355 kts 39°
2026-04-28 14:32 49.71968 11.43426 14580 ft 359 kts 38°
2026-04-28 14:32 49.73951 11.45852 15335 ft 363 kts 38°
2026-04-28 14:33 49.75925 11.48243 16038 ft 367 kts 38°
2026-04-28 14:33 49.77955 11.50693 16732 ft 372 kts 38°
2026-04-28 14:33 49.80012 11.53175 17421 ft 375 kts 38°
2026-04-28 14:33 49.82078 11.55670 18078 ft 379 kts 38°
2026-04-28 14:34 49.86257 11.60727 18930 ft 385 kts 38°
2026-04-28 14:34 49.88349 11.63264 18997 ft 385 kts 38°
2026-04-28 14:34 49.90471 11.65840 19001 ft 385 kts 38°
2026-04-28 14:35 49.92582 11.68407 18999 ft 385 kts 38°
2026-04-28 14:35 49.94672 11.70950 19000 ft 386 kts 38°
2026-04-28 14:35 49.96785 11.73523 19000 ft 386 kts 38°
2026-04-28 14:35 49.98907 11.76112 18999 ft 387 kts 38°
2026-04-28 14:36 50.01027 11.78700 19000 ft 386 kts 38°
2026-04-28 14:36 50.03140 11.81283 19001 ft 387 kts 38°
2026-04-28 14:36 50.05243 11.83857 19001 ft 387 kts 38°
2026-04-28 14:36 50.07364 11.86455 18999 ft 387 kts 38°
2026-04-28 14:37 50.09477 11.89047 19001 ft 386 kts 38°
2026-04-28 14:37 50.11593 11.91646 18999 ft 386 kts 38°
2026-04-28 14:37 50.13700 11.94236 19001 ft 386 kts 38°
2026-04-28 14:37 50.15814 11.96838 19001 ft 386 kts 38°
2026-04-28 14:38 50.17897 11.99405 19001 ft 386 kts 38°
2026-04-28 14:38 50.20008 12.02009 19000 ft 386 kts 38°
2026-04-28 14:38 50.22093 12.04585 18999 ft 386 kts 38°
2026-04-28 14:38 50.24234 12.07231 18999 ft 386 kts 38°
2026-04-28 14:39 50.26331 12.09827 18994 ft 386 kts 38°
2026-04-28 14:39 50.28448 12.12452 18794 ft 386 kts 38°
2026-04-28 14:39 50.30552 12.15061 18537 ft 384 kts 38°
2026-04-28 14:39 50.32621 12.17698 18282 ft 382 kts 42°
2026-04-28 14:40 50.34429 12.20713 18043 ft 380 kts 51°
2026-04-28 14:40 50.35450 12.22961 17877 ft 379 kts 58°
2026-04-28 14:40 50.37110 12.27775 17545 ft 378 kts 62°
2026-04-28 14:40 50.38338 12.31437 17289 ft 377 kts 62°
2026-04-28 14:41 50.39564 12.35068 17044 ft 376 kts 62°
2026-04-28 14:41 50.40781 12.38681 16794 ft 375 kts 62°
2026-04-28 14:41 50.41996 12.42297 16543 ft 373 kts 62°
2026-04-28 14:41 50.43201 12.45894 16293 ft 372 kts 62°
2026-04-28 14:42 50.44387 12.49441 16050 ft 370 kts 62°
2026-04-28 14:42 50.45579 12.53012 15793 ft 369 kts 62°
2026-04-28 14:42 50.46768 12.56581 15505 ft 368 kts 62°
2026-04-28 14:42 50.47963 12.60171 14884 ft 372 kts 62°
2026-04-28 14:43 50.49174 12.63817 14037 ft 377 kts 62°
2026-04-28 14:43 50.50390 12.67482 13052 ft 385 kts 62°
2026-04-28 14:43 50.51623 12.71205 12424 ft 382 kts 62°
2026-04-28 14:43 50.52835 12.74868 12143 ft 369 kts 62°
2026-04-28 14:44 50.53993 12.78374 12019 ft 353 kts 62°
2026-04-28 14:44 50.55100 12.81731 12001 ft 344 kts 62°
2026-04-28 14:44 50.56218 12.85124 12000 ft 350 kts 62°
2026-04-28 14:44 50.57321 12.88478 11999 ft 348 kts 62°
2026-04-28 14:45 50.58435 12.91870 11830 ft 350 kts 62°
2026-04-28 14:45 50.59554 12.95280 11443 ft 350 kts 62°
2026-04-28 14:45 50.60674 12.98696 10700 ft 355 kts 63°
2026-04-28 14:45 50.61818 13.02185 9785 ft 362 kts 62°
2026-04-28 14:46 50.63196 13.05560 8753 ft 371 kts 52°
2026-04-28 14:46 50.64984 13.08560 7735 ft 377 kts 41°
2026-04-28 14:46 50.66930 13.11192 7260 ft 368 kts 41°
2026-04-28 14:46 50.68824 13.13815 7053 ft 352 kts 41°
2026-04-28 14:47 50.70606 13.16308 6991 ft 331 kts 41°
2026-04-28 14:47 50.72266 13.18635 7012 ft 307 kts 41°
2026-04-28 14:47 50.73830 13.20829 6936 ft 293 kts 41°
2026-04-28 14:47 50.75330 13.22931 6731 ft 284 kts 41°
2026-04-28 14:48 50.76798 13.24985 6475 ft 278 kts 41°
2026-04-28 14:48 50.78217 13.26973 6351 ft 277 kts 41°
2026-04-28 14:48 50.79665 13.29001 6235 ft 279 kts 41°
2026-04-28 14:48 50.81128 13.31053 6088 ft 280 kts 41°
2026-04-28 14:49 50.82584 13.33097 5825 ft 278 kts 41°
2026-04-28 14:49 50.84039 13.35141 5306 ft 283 kts 41°
2026-04-28 14:49 50.85542 13.37253 4673 ft 291 kts 41°
2026-04-28 14:49 50.87060 13.39390 4080 ft 296 kts 41°
2026-04-28 14:50 50.88590 13.41554 3704 ft 291 kts 41°
2026-04-28 14:50 50.90100 13.43689 3332 ft 287 kts 41°
2026-04-28 14:50 50.91545 13.45726 3240 ft 268 kts 41°
2026-04-28 14:50 50.92937 13.47687 3234 ft 280 kts 41°
2026-04-28 14:51 50.94333 13.49658 3221 ft 250 kts 41°
2026-04-28 14:51 50.95545 13.51384 3217 ft 218 kts 42°
2026-04-28 14:51 50.96621 13.52980 3255 ft 212 kts 43°
2026-04-28 14:51 50.97696 13.54577 3236 ft 211 kts 43°
2026-04-28 14:52 50.98764 13.56149 3239 ft 211 kts 42°
2026-04-28 14:52 50.99822 13.57697 3240 ft 207 kts 42°
2026-04-28 14:52 51.00906 13.59269 3228 ft 211 kts 42°
2026-04-28 14:52 51.01965 13.60793 3223 ft 192 kts 41°
2026-04-28 14:53 51.02889 13.62115 3193 ft 167 kts 41°
2026-04-28 14:53 51.03704 13.63278 3024 ft 151 kts 41°
2026-04-28 14:53 51.04455 13.64342 2823 ft 138 kts 41°
2026-04-28 14:53 51.05188 13.65380 2644 ft 141 kts 41°
2026-04-28 14:54 51.05915 13.66404 2462 ft 139 kts 41°
2026-04-28 14:54 51.06637 13.67442 2276 ft 139 kts 41°
2026-04-28 14:54 51.07360 13.68437 2096 ft 139 kts 40°
2026-04-28 14:54 51.08088 13.69441 1907 ft 138 kts 40°
2026-04-28 14:55 51.08815 13.70441 1728 ft 138 kts 40°
2026-04-28 14:55 51.09537 13.71433 1536 ft 137 kts 40°
2026-04-28 14:55 51.10258 13.72425 1364 ft 137 kts 40°
2026-04-28 14:55 51.10981 13.73420 1183 ft 137 kts 40°
2026-04-28 14:56 51.11692 13.74398 1004 ft 136 kts 40°
2026-04-28 14:56 51.12407 13.75383 823 ft 136 kts 40°
2026-04-28 14:56 51.13089 13.76302 747 ft 101 kts 40°
2026-04-28 14:56 51.13398 13.76724 736 ft 15 kts 41°
2026-04-28 14:57 51.13613 13.77019 731 ft 60 kts 41°
2026-04-28 14:57 51.13806 13.77290 729 ft 41 kts 42°
2026-04-28 14:57 51.13880 13.77540 723 ft 16 kts 125°
2026-04-28 14:57 51.13803 13.77695 721 ft 20 kts 130°
2026-04-28 14:58 51.13721 13.77693 721 ft 11 kts 234°
2026-04-28 14:58 51.13666 13.77594 722 ft 15 kts 221°
2026-04-28 14:58 51.13547 13.77429 725 ft 29 kts 221°
2026-04-28 14:58 51.13389 13.77218 729 ft 29 kts 217°
2026-04-28 14:59 51.13241 13.77013 734 ft 28 kts 220°
2026-04-28 14:59 51.13103 13.76824 742 ft 26 kts 221°
2026-04-28 14:59 51.12971 13.76638 745 ft 25 kts 221°
2026-04-28 14:59 51.12864 13.76490 744 ft 5 kts 220°
2026-04-28 15:00 51.12825 13.76465 749 ft 6 kts 169°
2026-04-28 15:00 51.12791 13.76509 749 ft 7 kts 129°
2026-04-28 15:00 51.12740 13.76607 751 ft 15 kts 129°
2026-04-28 15:00 51.12669 13.76740 751 ft 15 kts 137°
2026-04-28 15:01 51.12597 13.76702 752 ft 11 kts 227°
2026-04-28 15:01 51.12569 13.76672 752 ft 0 kts 221°
2026-04-28 15:01 51.12567 13.76669 754 ft 0 kts 219°